period_start,C,m1,H,J0,J1,J2,J3,J4,J5,JA,JB,JC,JD,JJ,JK,JN,#
2014-08-25 00:02:05,0.01,0.14,0.00,26.90,30.94,33.15,9.44,40.29,1012.22,2023.98,3349.90,3266.98,3542.68,500.26,488.39,4.50,0000 0000 0000 0000 000000
2014-08-25 00:07:06,0.04,0.14,0.00,26.92,30.96,33.18,9.40,40.23,1012.22,2023.94,3349.08,3266.30,3541.99,499.71,487.76,4.54,0000 0000 0000 0000 000000
2014-08-25 00:12:08,0.01,0.14,0.00,26.93,30.99,33.20,9.38,40.14,1012.22,2023.82,3348.37,3265.92,3541.29,500.17,488.10,4.59,0000 0000 0000 0000 000000
2014-08-25 00:17:09,0.01,0.14,0.00,26.98,31.01,33.23,9.36,39.99,1012.22,2023.49,3347.74,3265.17,3540.74,499.95,487.91,4.63,0000 0000 0000 0000 000000
2014-08-25 00:22:10,-0.00,0.14,0.00,26.98,31.04,33.26,9.41,40.14,1012.20,2023.25,3347.02,3264.89,3540.04,499.76,487.80,4.67,0000 0000 0000 0000 000000
2014-08-25 00:27:11,0.04,0.14,0.00,27.00,31.06,33.29,9.50,40.03,1012.15,2023.06,3346.30,3264.13,3539.43,500.27,488.31,4.71,0000 0000 0000 0000 000000
2014-08-25 00:32:12,0.02,0.14,0.00,27.00,31.09,33.31,9.42,40.20,1012.08,2023.00,3345.61,3263.82,3538.85,499.94,487.86,4.75,0000 0000 0000 0000 000000
2014-08-25 00:37:13,0.03,0.15,0.00,27.01,31.11,33.34,9.37,40.02,1012.05,2023.00,3344.97,3263.06,3538.06,499.80,487.62,4.80,0000 0000 0000 0000 000000
2014-08-25 00:42:15,0.03,0.15,0.00,27.03,31.13,33.36,9.45,40.08,1012.18,2023.00,3344.19,3262.94,3537.51,500.39,488.35,4.84,0000 0000 0000 0000 000000
2014-08-25 00:47:15,0.04,0.15,0.00,27.04,31.15,33.38,9.41,40.12,1012.21,2022.99,3343.68,3262.15,3536.99,499.95,488.13,4.88,0000 0000 0000 0000 000000
2014-08-25 00:52:17,0.02,0.15,0.00,27.03,31.17,33.40,9.46,40.12,1012.21,2022.98,3343.01,3261.97,3536.37,499.74,487.74,4.92,0000 0000 0000 0000 000000
2014-08-25 00:57:18,0.03,0.15,0.00,27.04,31.20,33.42,9.30,40.13,1012.22,2022.91,3342.39,3261.34,3535.96,499.67,487.58,4.96,0000 0000 0000 0000 000000
2014-08-25 01:02:19,0.01,0.15,0.00,27.06,31.21,33.44,9.46,40.17,1012.20,2022.70,3341.86,3260.98,3535.19,500.04,487.90,5.01,0000 0000 0000 0000 000000
2014-08-25 01:07:20,-0.01,0.15,0.00,27.07,31.23,33.47,9.46,40.23,1012.17,2022.30,3341.06,3260.29,3534.86,500.13,487.91,5.05,0000 0000 0000 0000 000000
2014-08-25 01:12:22,0.02,0.15,0.00,27.10,31.25,33.48,9.41,40.17,1012.06,2022.21,3340.53,3260.00,3534.14,499.85,487.74,5.09,0000 0000 0000 0000 000000
2014-08-25 01:17:23,0.03,0.15,0.00,27.12,31.27,33.50,9.43,40.05,1012.04,2022.08,3339.86,3259.47,3533.65,500.18,487.72,5.13,0000 0000 0000 0000 000000
2014-08-25 01:22:25,0.01,0.15,0.00,27.14,31.29,33.52,9.54,40.49,1011.93,2022.01,3339.06,3259.00,3533.01,500.55,488.11,5.17,0000 0000 0000 0000 000000
2014-08-25 01:27:26,0.05,0.16,0.00,27.17,31.31,33.52,9.43,40.39,1011.91,2022.00,3338.57,3258.52,3532.40,500.11,487.60,5.21,0000 0000 0000 0000 000000
2014-08-25 01:32:27,0.01,0.16,0.00,27.17,31.32,33.54,9.41,40.40,1011.76,2022.00,3337.95,3257.99,3531.91,499.99,487.47,5.26,0000 0000 0000 0000 000000
2014-08-25 01:37:28,0.05,0.16,0.00,27.20,31.35,33.56,9.45,40.47,1011.75,2022.00,3337.13,3257.37,3531.09,500.28,487.73,5.30,0000 0000 0000 0000 000000
2014-08-25 01:42:29,0.02,0.16,0.00,27.21,31.37,33.57,9.35,40.35,1011.73,2021.99,3336.59,3256.99,3530.60,500.02,487.30,5.34,0000 0000 0000 0000 000000
2014-08-25 01:47:30,0.03,0.16,0.00,27.25,31.37,33.59,9.41,40.39,1011.73,2021.96,3335.99,3256.34,3530.01,500.16,487.46,5.38,0000 0000 0000 0000 000000
2014-08-25 01:52:31,0.03,0.16,0.00,27.27,31.40,33.60,9.42,40.47,1011.73,2021.96,3335.32,3256.00,3529.42,500.19,487.49,5.42,0000 0000 0000 0000 000000
2014-08-25 01:57:32,0.01,0.16,0.00,27.30,31.42,33.63,9.48,40.33,1011.73,2021.80,3334.88,3255.42,3528.97,500.31,487.52,5.47,0000 0000 0000 0000 000000
2014-08-25 02:02:34,0.00,0.16,0.00,27.35,31.44,33.64,9.36,40.29,1011.73,2021.45,3334.09,3255.00,3528.13,499.86,487.08,5.51,0000 0000 0000 0000 000000
2014-08-25 02:07:35,0.02,0.17,0.00,27.40,31.46,33.66,9.46,40.33,1011.73,2021.24,3333.50,3254.42,3527.79,500.06,487.11,5.55,0000 0000 0000 0000 000000
2014-08-25 02:12:36,0.01,0.17,0.00,27.42,31.49,33.68,9.38,40.16,1011.73,2021.05,3332.80,3253.94,3527.02,500.04,487.09,5.59,0000 0000 0000 0000 000000
2014-08-25 02:17:37,0.05,0.17,0.00,27.47,31.51,33.70,9.34,40.38,1011.73,2021.01,3332.06,3253.19,3526.25,499.87,486.71,5.63,0000 0000 0000 0000 000000
2014-08-25 02:22:38,0.02,0.17,0.00,27.50,31.53,33.73,9.40,40.54,1011.73,2021.00,3331.43,3252.95,3525.84,500.05,487.00,5.67,0000 0000 0000 0000 000000
2014-08-25 02:27:39,0.04,0.17,0.00,27.50,31.56,33.74,9.40,40.44,1011.73,2021.00,3330.98,3252.16,3525.06,499.80,486.69,5.72,0000 0000 0000 0000 000000
2014-08-25 02:32:40,0.04,0.17,0.00,27.52,31.58,33.77,9.37,40.45,1011.73,2021.00,3330.20,3251.79,3524.45,500.29,487.13,5.76,0000 0000 0000 0000 000000
2014-08-25 02:37:42,0.03,0.17,0.00,27.57,31.61,33.80,9.37,40.42,1011.73,2020.96,3329.53,3251.05,3523.89,500.15,487.03,5.80,0000 0000 0000 0000 000000
2014-08-25 02:42:43,0.03,0.18,0.00,27.62,31.63,33.82,9.27,40.50,1011.73,2020.87,3328.82,3250.51,3523.06,499.75,486.57,5.84,0000 0000 0000 0000 000000
2014-08-25 02:47:45,-0.00,0.18,0.00,27.66,31.66,33.85,9.39,40.58,1011.73,2020.52,3328.08,3250.00,3522.42,499.89,486.50,5.88,0000 0000 0000 0000 000000
2014-08-25 02:52:46,0.02,0.18,0.00,27.70,31.69,33.88,9.38,40.37,1011.73,2020.41,3327.56,3249.55,3521.98,500.24,486.74,5.93,0000 0000 0000 0000 000000
2014-08-25 02:57:47,0.00,0.18,0.00,27.75,31.71,33.90,9.36,40.34,1011.73,2020.18,3326.98,3249.00,3521.21,499.63,486.15,5.97,0000 0000 0000 0000 000000
2014-08-25 03:02:48,0.04,0.18,0.00,27.79,31.75,33.93,9.42,40.42,1011.73,2020.04,3326.24,3248.30,3520.49,500.33,486.76,6.01,0000 0000 0000 0000 000000
2014-08-25 03:07:49,0.02,0.18,0.00,27.81,31.77,33.96,9.33,40.41,1011.73,2020.00,3325.48,3247.87,3519.91,499.88,486.38,6.05,0000 0000 0000 0000 000000
2014-08-25 03:12:51,0.05,0.18,0.00,27.87,31.81,33.99,9.38,40.38,1011.73,2020.00,3324.75,3247.09,3519.09,500.19,486.42,6.09,0000 0000 0000 0000 000000
2014-08-25 03:17:52,0.05,0.18,0.00,27.91,31.84,34.02,9.35,40.26,1011.73,2020.00,3323.97,3246.32,3518.35,499.66,485.90,6.13,0000 0000 0000 0000 000000
2014-08-25 03:22:53,0.04,0.19,0.00,27.93,31.87,34.05,9.36,40.32,1011.73,2019.97,3323.11,3245.80,3517.64,500.37,486.58,6.18,0000 0000 0000 0000 000000
2014-08-25 03:27:54,0.03,0.19,0.00,27.97,31.90,34.08,9.31,40.21,1011.73,2019.86,3322.28,3245.01,3516.81,499.98,486.19,6.22,0000 0000 0000 0000 000000
2014-08-25 03:32:55,-0.00,0.19,0.00,28.02,31.93,34.12,9.38,40.23,1011.73,2019.41,3321.48,3244.18,3515.96,500.04,486.29,6.26,0000 0000 0000 0000 000000
2014-08-25 03:37:56,0.01,0.19,0.00,28.06,31.96,34.14,9.38,40.47,1011.71,2019.10,3320.87,3243.72,3515.13,500.18,485.98,6.30,0000 0000 0000 0000 000000
2014-08-25 03:42:57,0.04,0.19,0.00,28.10,32.00,34.18,9.36,40.63,1011.70,2019.01,3320.04,3242.99,3514.32,499.84,485.91,6.34,0000 0000 0000 0000 000000
2014-08-25 07:53:18,-3333.30,0.00,0.00,24.85,27.18,25.42,8.88,38.80,1011.00,1974.03,3459.48,3340.44,3633.75,475.37,468.26,0.01,0000 0000 0000 0000 000000
2014-08-25 07:58:19,0.00,0.00,0.00,24.86,27.08,26.95,9.28,39.69,1011.25,2040.02,3451.13,3334.44,3627.68,500.05,491.05,0.05,0000 0000 0000 0000 000000
2014-08-25 08:03:20,0.02,0.00,0.00,24.98,27.01,27.96,9.39,39.89,1011.46,2040.00,3449.53,3333.36,3626.08,500.12,491.12,0.09,0000 0000 0000 0000 000000
2014-08-25 08:08:21,0.02,0.01,0.00,25.33,26.97,28.38,9.32,39.56,1011.72,2040.01,3448.60,3332.93,3625.05,500.08,490.55,0.13,0000 0000 0000 0000 000000
2014-08-25 08:13:22,0.04,0.01,0.00,25.77,26.98,28.71,9.30,39.42,1011.74,2040.02,3447.56,3332.03,3623.87,499.84,489.65,0.17,0000 0000 0000 0000 000000
2014-08-25 08:18:23,0.06,0.01,0.00,26.01,27.03,29.12,9.32,39.27,1011.83,2040.03,3446.51,3331.08,3622.66,500.54,490.03,0.22,0000 0000 0000 0000 000000
2014-08-25 08:23:24,0.06,0.01,0.00,26.14,27.11,29.54,9.26,39.10,1012.07,2040.00,3445.29,3330.07,3621.22,499.79,489.20,0.26,0000 0000 0000 0000 000000
2014-08-25 08:28:26,0.08,0.02,0.00,26.33,27.22,29.90,9.46,39.29,1012.21,2039.99,3443.97,3328.86,3619.70,500.57,489.52,0.30,0000 0000 0000 0000 000000
2014-08-25 08:33:27,0.04,0.02,0.00,26.53,27.36,30.23,9.33,39.27,1012.22,2039.71,3442.55,3327.55,3618.00,500.24,488.93,0.34,0000 0000 0000 0000 000000
2014-08-25 08:38:28,0.05,0.02,0.00,26.74,27.51,30.54,9.32,39.09,1012.22,2039.03,3440.77,3326.01,3616.09,499.96,488.45,0.38,0000 0000 0000 0000 000000
2014-08-25 08:43:30,0.06,0.03,0.00,26.94,27.67,30.82,9.36,39.17,1012.23,2038.81,3439.23,3324.52,3614.25,500.03,488.05,0.42,0000 0000 0000 0000 000000
2014-08-25 08:48:31,0.04,0.03,0.00,27.12,27.85,31.09,9.34,39.05,1012.26,2038.04,3437.45,3322.84,3612.29,499.74,487.58,0.47,0000 0000 0000 0000 000000
2014-08-25 08:53:31,0.03,0.03,0.00,27.28,28.03,31.35,9.29,39.19,1012.44,2037.49,3435.69,3321.09,3610.12,499.98,487.47,0.51,0000 0000 0000 0000 000000
2014-08-25 08:58:33,0.09,0.03,0.00,27.42,28.22,31.60,9.31,39.02,1012.69,2036.94,3433.79,3319.30,3608.00,499.80,487.47,0.55,0000 0000 0000 0000 000000
2014-08-25 09:03:34,0.03,0.03,0.00,27.56,28.41,31.84,9.30,38.87,1012.71,2036.10,3431.76,3317.43,3605.78,500.31,487.59,0.59,0000 0000 0000 0000 000000
2014-08-25 09:08:35,0.03,0.04,0.00,27.68,28.61,32.03,9.36,38.90,1012.72,2035.39,3429.81,3315.58,3603.67,500.11,487.13,0.63,0000 0000 0000 0000 000000
2014-08-25 09:13:36,0.05,0.04,0.00,27.78,28.80,32.23,9.28,38.69,1012.75,2034.71,3427.82,3313.65,3601.45,499.79,486.64,0.67,0000 0000 0000 0000 000000
2014-08-25 09:18:36,0.07,0.04,0.00,27.89,29.00,32.39,9.28,38.69,1012.95,2033.93,3425.84,3311.76,3599.26,499.75,486.58,0.72,0000 0000 0000 0000 000000
2014-08-25 09:23:38,0.03,0.04,0.00,28.01,29.19,32.57,9.27,38.66,1013.03,2033.09,3423.86,3309.84,3597.00,500.05,486.75,0.76,0000 0000 0000 0000 000000
2014-08-25 09:28:39,0.03,0.04,0.00,28.09,29.38,32.71,9.32,38.66,1013.17,2032.26,3421.83,3307.93,3594.78,499.94,486.46,0.80,0000 0000 0000 0000 000000
2014-08-25 09:33:40,0.04,0.05,0.00,28.17,29.56,32.83,9.38,38.61,1013.19,2031.56,3419.76,3305.97,3592.48,500.15,486.74,0.84,0000 0000 0000 0000 000000
2014-08-25 09:38:42,0.06,0.05,0.00,28.24,29.74,32.89,9.39,38.68,1013.20,2030.85,3417.83,3304.18,3590.41,500.32,486.73,0.88,0000 0000 0000 0000 000000
2014-08-25 09:43:43,0.05,0.05,0.00,28.31,29.91,32.95,9.33,38.64,1013.20,2030.03,3415.80,3302.27,3588.20,500.38,486.69,0.93,0000 0000 0000 0000 000000
2014-08-25 09:48:44,0.02,0.05,0.00,28.41,30.08,33.07,9.28,38.69,1013.20,2029.18,3413.84,3300.44,3586.11,499.92,486.22,0.97,0000 0000 0000 0000 000000
2014-08-25 09:53:45,0.03,0.05,0.00,28.48,30.25,33.17,9.33,38.68,1013.22,2028.54,3411.94,3298.57,3584.06,500.03,486.13,1.01,0000 0000 0000 0000 000000
2014-08-25 09:58:46,0.09,0.05,0.00,28.56,30.41,33.29,9.27,38.65,1013.32,2027.97,3410.06,3296.81,3582.23,499.62,485.77,1.05,0000 0000 0000 0000 000000
2014-08-25 10:03:48,0.01,0.06,0.00,28.61,30.56,33.40,9.27,38.63,1013.41,2027.17,3408.18,3295.11,3580.21,499.69,485.53,1.09,0000 0000 0000 0000 000000
2014-08-25 10:08:49,0.03,0.06,0.00,28.67,30.71,33.50,9.34,38.61,1013.59,2026.51,3406.34,3293.29,3578.19,500.21,486.09,1.14,0000 0000 0000 0000 000000
2014-08-25 10:13:50,0.09,0.06,0.00,28.74,30.86,33.61,9.28,38.55,1013.66,2025.92,3404.48,3291.52,3576.11,500.09,485.70,1.18,0000 0000 0000 0000 000000
2014-08-25 10:18:52,0.02,0.06,0.00,28.83,31.00,33.73,9.30,38.43,1013.66,2025.10,3402.69,3289.84,3574.17,500.08,485.81,1.22,0000 0000 0000 0000 000000
2014-08-25 10:23:53,0.05,0.07,0.00,28.87,31.14,33.84,9.34,38.56,1013.65,2024.70,3400.94,3288.25,3572.26,499.63,485.37,1.26,0000 0000 0000 0000 000000
2014-08-25 10:28:54,0.07,0.07,0.00,28.92,31.27,33.93,9.31,38.52,1013.68,2024.00,3399.13,3286.53,3570.28,499.76,485.27,1.30,0000 0000 0000 0000 000000
2014-08-25 10:33:55,0.01,0.07,0.00,28.96,31.39,34.05,9.30,38.54,1013.67,2023.29,3397.38,3284.86,3568.42,500.39,485.83,1.34,0000 0000 0000 0000 000000
2014-08-25 10:38:56,0.09,0.07,0.00,29.00,31.51,34.14,9.29,38.66,1013.68,2022.93,3395.55,3283.25,3566.49,500.13,485.63,1.39,0000 0000 0000 0000 000000
2014-08-25 10:43:57,0.02,0.07,0.00,29.03,31.63,34.22,9.28,38.46,1013.68,2022.13,3393.81,3281.64,3564.61,499.78,485.07,1.43,0000 0000 0000 0000 000000
2014-08-25 10:48:59,0.06,0.08,0.00,29.08,31.74,34.30,9.32,38.68,1013.69,2021.72,3392.04,3280.02,3562.76,499.98,485.32,1.47,0000 0000 0000 0000 000000
2014-08-25 10:54:00,0.04,0.08,0.00,29.08,31.85,34.39,9.33,38.73,1013.68,2021.05,3390.60,3278.59,3561.03,499.69,484.92,1.51,0000 0000 0000 0000 000000
2014-08-25 10:59:01,0.07,0.08,0.00,29.11,31.95,34.46,9.31,38.47,1013.66,2020.82,3388.97,3277.07,3559.27,500.07,485.35,1.55,0000 0000 0000 0000 000000
2014-08-25 11:04:02,0.02,0.08,0.00,29.16,32.05,34.54,9.25,38.59,1013.55,2020.08,3387.37,3275.60,3557.53,499.73,484.76,1.60,0000 0000 0000 0000 000000
2014-08-25 11:09:03,0.08,0.08,0.00,29.20,32.15,34.61,9.28,38.43,1013.59,2019.94,3385.77,3274.11,3555.83,499.67,484.73,1.64,0000 0000 0000 0000 000000
2014-08-25 11:14:04,0.01,0.09,0.00,29.23,32.24,34.69,9.29,38.52,1013.67,2019.19,3384.17,3272.62,3554.12,499.93,484.96,1.68,0000 0000 0000 0000 000000
2014-08-25 11:19:05,0.08,0.09,0.00,29.28,32.33,34.76,9.25,38.52,1013.69,2018.96,3382.57,3271.18,3552.41,499.87,484.83,1.72,0000 0000 0000 0000 000000
2014-08-25 11:24:07,0.01,0.09,0.00,29.32,32.41,34.83,9.30,38.56,1013.68,2018.29,3380.96,3269.72,3550.67,499.78,484.76,1.76,0000 0000 0000 0000 000000
2014-08-25 11:29:08,0.08,0.09,0.00,29.36,32.49,34.89,9.32,38.50,1013.69,2018.01,3379.51,3268.39,3549.06,500.22,485.08,1.80,0000 0000 0000 0000 000000
2014-08-25 11:34:09,0.05,0.10,0.00,29.36,32.57,34.96,9.34,38.70,1013.67,2017.76,3378.02,3267.00,3547.52,499.99,484.92,1.85,0000 0000 0000 0000 000000
2014-08-25 11:39:10,0.03,0.10,0.00,29.37,32.64,35.02,9.30,38.66,1013.67,2017.06,3376.53,3265.66,3545.87,499.95,484.89,1.89,0000 0000 0000 0000 000000
2014-08-25 11:44:11,0.08,0.10,0.00,29.37,32.72,35.08,9.27,38.61,1013.69,2016.99,3375.12,3264.41,3544.41,499.67,484.56,1.93,0000 0000 0000 0000 000000
2014-08-25 11:49:12,0.02,0.10,0.00,29.39,32.78,35.13,9.29,38.58,1013.69,2016.61,3373.71,3263.26,3542.96,500.29,484.94,1.97,0000 0000 0000 0000 000000
2014-08-25 11:54:13,0.04,0.10,0.00,29.40,32.85,35.18,9.32,38.74,1013.69,2016.05,3372.32,3262.08,3541.52,499.90,484.69,2.01,0000 0000 0000 0000 000000
2014-08-25 11:59:14,0.08,0.11,0.00,29.42,32.91,35.22,9.28,38.60,1013.69,2015.99,3370.86,3260.86,3540.03,499.84,484.74,2.06,0000 0000 0000 0000 000000
2014-08-25 12:04:16,0.06,0.11,0.00,29.43,32.97,35.28,9.29,38.65,1013.69,2015.90,3369.53,3259.77,3538.67,499.77,484.49,2.10,0000 0000 0000 0000 000000
2014-08-25 12:09:17,-0.00,0.11,0.00,29.46,33.02,35.33,9.33,38.47,1013.69,2015.21,3368.20,3258.57,3537.31,499.97,484.64,2.14,0000 0000 0000 0000 000000
2014-08-25 12:14:18,0.08,0.11,0.00,29.46,33.07,35.37,9.33,38.53,1013.69,2014.99,3366.80,3257.39,3535.84,499.97,484.58,2.18,0000 0000 0000 0000 000000
2014-08-25 12:19:19,0.06,0.12,0.00,29.49,33.12,35.41,9.36,38.52,1013.69,2014.92,3365.59,3256.29,3534.54,500.43,485.03,2.22,0000 0000 0000 0000 000000
2014-08-25 12:24:20,-0.02,0.12,0.00,29.49,33.17,35.45,9.33,38.57,1013.68,2014.25,3364.37,3255.24,3533.30,500.42,485.03,2.26,0000 0000 0000 0000 000000
2014-08-25 12:29:21,0.06,0.12,0.00,29.50,33.22,35.50,9.32,38.62,1013.67,2014.01,3363.13,3254.12,3532.00,500.22,484.97,2.31,0000 0000 0000 0000 000000
2014-08-25 12:34:22,0.08,0.12,0.00,29.52,33.27,35.53,9.29,38.49,1013.63,2013.99,3361.88,3253.12,3530.73,500.16,484.70,2.35,0000 0000 0000 0000 000000
2014-08-25 12:39:23,0.05,0.12,0.00,29.54,33.31,35.57,9.26,38.44,1013.61,2013.87,3360.63,3252.01,3529.41,499.59,484.21,2.39,0000 0000 0000 0000 000000
2014-08-25 12:44:24,-0.00,0.12,0.00,29.55,33.36,35.61,9.33,38.56,1013.58,2013.28,3359.47,3250.94,3528.25,499.94,484.51,2.43,0000 0000 0000 0000 000000
2014-08-25 12:49:25,0.06,0.13,0.00,29.55,33.40,35.64,9.30,38.67,1013.53,2013.05,3358.30,3249.99,3527.09,500.07,484.49,2.47,0000 0000 0000 0000 000000
2014-08-25 12:54:26,0.06,0.13,0.00,29.56,33.44,35.68,9.34,38.52,1013.38,2013.00,3357.29,3249.10,3525.97,499.99,484.52,2.52,0000 0000 0000 0000 000000
2014-08-25 12:59:28,0.07,0.13,0.00,29.61,33.47,35.71,9.29,38.66,1013.34,2012.98,3356.16,3248.15,3524.80,499.53,483.90,2.56,0000 0000 0000 0000 000000
2014-08-25 13:04:28,0.05,0.13,0.00,29.60,33.51,35.75,9.28,38.48,1013.37,2012.80,3355.02,3247.20,3523.71,499.91,484.12,2.60,0000 0000 0000 0000 000000
2014-08-25 13:09:30,-0.00,0.13,0.00,29.62,33.55,35.78,9.35,38.58,1013.38,2012.25,3353.95,3246.25,3522.67,500.53,484.86,2.64,0000 0000 0000 0000 000000
2014-08-25 13:14:31,0.05,0.13,0.00,29.62,33.58,35.80,9.39,38.64,1013.27,2012.04,3352.92,3245.40,3521.51,500.05,484.33,2.68,0000 0000 0000 0000 000000
2014-08-25 13:19:32,0.06,0.14,0.00,29.64,33.61,35.83,9.31,38.73,1013.23,2012.01,3351.87,3244.61,3520.54,500.49,484.57,2.72,0000 0000 0000 0000 000000
2014-08-25 13:24:33,0.06,0.14,0.00,29.65,33.64,35.86,9.28,38.54,1013.22,2012.00,3350.83,3243.70,3519.51,499.60,483.78,2.77,0000 0000 0000 0000 000000
2014-08-25 13:29:34,0.06,0.14,0.00,29.65,33.67,35.88,9.33,38.74,1013.21,2011.97,3349.71,3242.78,3518.50,499.96,484.16,2.81,0000 0000 0000 0000 000000
2014-08-25 13:34:36,0.05,0.14,0.00,29.65,33.70,35.91,9.40,38.72,1013.22,2011.89,3348.63,3241.92,3517.51,500.01,484.20,2.85,0000 0000 0000 0000 000000
2014-08-25 13:39:37,0.04,0.15,0.00,29.68,33.72,35.94,9.24,38.73,1013.20,2011.70,3347.51,3240.93,3516.43,499.56,483.88,2.89,0000 0000 0000 0000 000000
2014-08-25 13:44:38,0.02,0.15,0.00,29.68,33.75,35.96,9.33,38.67,1013.20,2011.17,3346.31,3239.92,3515.18,500.15,484.43,2.93,0000 0000 0000 0000 000000
2014-08-25 13:49:39,0.06,0.15,0.00,29.68,33.77,35.98,9.27,38.58,1013.20,2011.03,3345.05,3238.95,3513.94,500.34,484.49,2.98,0000 0000 0000 0000 000000
2014-08-25 13:54:40,0.07,0.15,0.00,29.69,33.80,36.00,9.32,38.63,1013.20,2011.00,3343.87,3237.95,3512.76,499.79,483.86,3.02,0000 0000 0000 0000 000000
2014-08-25 13:59:41,0.07,0.16,0.00,29.70,33.82,36.03,9.29,38.52,1013.20,2011.00,3342.68,3236.98,3511.61,499.92,483.95,3.06,0000 0000 0000 0000 000000
2014-08-25 14:04:43,0.06,0.16,0.00,29.68,33.85,36.05,9.29,38.69,1013.19,2010.99,3341.53,3236.03,3510.43,499.76,483.89,3.10,0000 0000 0000 0000 000000
2014-08-25 14:09:44,0.06,0.16,0.00,29.70,33.86,36.07,9.33,38.65,1013.05,2010.96,3340.45,3235.07,3509.26,499.93,483.86,3.14,0000 0000 0000 0000 000000
2014-08-25 14:14:45,0.05,0.16,0.00,29.72,33.88,36.09,9.32,38.63,1012.91,2010.80,3339.26,3234.11,3508.09,500.29,484.22,3.18,0000 0000 0000 0000 000000
2014-08-25 14:19:46,0.00,0.17,0.00,29.72,33.90,36.10,9.26,38.70,1012.73,2010.38,3338.19,3233.20,3506.99,499.42,483.44,3.23,0000 0000 0000 0000 000000
2014-08-25 14:24:47,0.05,0.17,0.00,29.72,33.92,36.12,9.34,38.62,1012.71,2010.07,3337.06,3232.26,3505.88,500.66,484.60,3.27,0000 0000 0000 0000 000000
2014-08-25 14:29:48,0.07,0.17,0.00,29.74,33.94,36.15,9.29,38.52,1012.72,2010.01,3335.87,3231.33,3504.68,499.79,483.57,3.31,0000 0000 0000 0000 000000
2014-08-25 14:34:50,0.06,0.17,0.00,29.75,33.95,36.16,9.33,38.64,1012.71,2010.00,3334.81,3230.45,3503.73,500.17,483.91,3.35,0000 0000 0000 0000 000000
2014-08-25 14:39:50,0.06,0.17,0.00,29.72,33.97,36.17,9.38,38.73,1012.71,2010.00,3333.77,3229.64,3502.69,500.23,484.07,3.39,0000 0000 0000 0000 000000
2014-08-25 14:44:51,0.05,0.18,0.00,29.74,33.98,36.18,9.32,38.66,1012.71,2010.00,3332.76,3228.88,3501.72,500.06,483.85,3.44,0000 0000 0000 0000 000000
2014-08-25 14:49:53,0.06,0.18,0.00,29.72,34.00,36.21,9.28,38.63,1012.55,2009.99,3331.70,3228.03,3500.72,499.91,483.53,3.48,0000 0000 0000 0000 000000
2014-08-25 14:54:54,0.06,0.18,0.00,29.74,34.01,36.21,9.30,38.83,1012.40,2009.97,3330.66,3227.21,3499.73,499.73,483.37,3.52,0000 0000 0000 0000 000000
2014-08-25 14:59:55,0.05,0.18,0.00,29.73,34.02,36.23,9.35,38.77,1012.32,2009.93,3329.68,3226.43,3498.82,499.88,483.49,3.56,0000 0000 0000 0000 000000
2014-08-25 15:04:56,0.05,0.19,0.00,29.73,34.03,36.23,9.31,38.70,1012.25,2009.93,3328.75,3225.76,3497.93,499.78,483.34,3.60,0000 0000 0000 0000 000000
2014-08-25 15:09:57,0.04,0.19,0.00,29.74,34.05,36.25,9.29,38.63,1012.24,2009.83,3327.75,3224.97,3496.98,500.27,483.81,3.64,0000 0000 0000 0000 000000
2014-08-25 15:14:59,0.03,0.19,0.00,29.72,34.05,36.26,9.29,38.60,1012.23,2009.61,3326.85,3224.11,3496.03,499.88,483.38,3.69,0000 0000 0000 0000 000000
2014-08-25 15:20:00,0.02,0.19,0.00,29.72,34.05,36.26,9.27,38.75,1012.23,2009.25,3325.86,3223.33,3495.07,499.53,483.26,3.73,0000 0000 0000 0000 000000
2014-08-25 15:25:01,0.04,0.19,0.00,29.73,34.07,36.26,9.25,38.50,1012.22,2009.15,3324.92,3222.74,3494.20,500.36,483.85,3.77,0000 0000 0000 0000 000000
2014-08-25 15:30:02,0.04,0.20,0.00,29.71,34.07,36.28,9.31,38.69,1012.22,2009.08,3324.02,3222.02,3493.45,499.94,483.63,3.81,0000 0000 0000 0000 000000
2014-08-25 15:35:03,0.05,0.20,0.00,29.70,34.07,36.27,9.26,38.71,1012.22,2009.03,3323.04,3221.21,3492.48,499.86,483.44,3.85,0000 0000 0000 0000 000000
2014-08-25 15:40:04,0.04,0.20,0.00,29.70,34.08,36.28,9.28,38.77,1012.22,2009.01,3322.10,3220.76,3491.78,499.39,483.02,3.90,0000 0000 0000 0000 000000
2014-08-25 15:45:05,0.05,0.20,0.00,29.69,34.10,36.29,9.25,38.77,1012.22,2009.00,3321.24,3219.97,3490.86,499.71,483.35,3.94,0000 0000 0000 0000 000000
2014-08-25 15:50:06,0.05,0.20,0.00,29.69,34.10,36.30,9.35,38.83,1012.21,2009.00,3320.24,3219.14,3490.03,500.12,483.82,3.98,0000 0000 0000 0000 000000
2014-08-25 15:55:07,0.04,0.21,0.00,29.71,34.10,36.29,9.32,38.63,1012.20,2009.00,3319.44,3218.72,3489.25,500.38,483.90,4.02,0000 0000 0000 0000 000000
2014-08-25 16:00:09,0.04,0.21,0.00,29.69,34.10,36.30,9.30,38.76,1012.19,2009.00,3318.60,3218.03,3488.42,499.74,483.30,4.06,0000 0000 0000 0000 000000
2014-08-25 16:05:10,0.04,0.21,0.00,29.68,34.10,36.31,9.33,38.67,1012.20,2009.00,3317.83,3217.41,3487.86,499.87,483.51,4.11,0000 0000 0000 0000 000000
2014-08-25 16:10:12,0.03,0.21,0.00,29.66,34.10,36.29,9.29,38.83,1012.13,2009.00,3316.98,3216.94,3487.04,499.99,483.43,4.15,0000 0000 0000 0000 000000
2014-08-25 16:15:13,0.06,0.21,0.00,29.66,34.10,36.31,9.27,38.76,1012.00,2009.00,3316.06,3216.12,3486.15,499.53,483.12,4.19,0000 0000 0000 0000 000000
2014-08-25 16:20:14,0.06,0.22,0.00,29.64,34.11,36.31,9.38,38.74,1011.79,2009.00,3315.13,3215.37,3485.20,500.31,483.89,4.23,0000 0000 0000 0000 000000
2014-08-25 16:25:15,0.02,0.22,0.00,29.64,34.12,36.31,9.29,38.73,1011.76,2009.00,3314.31,3215.00,3484.81,499.45,483.00,4.27,0000 0000 0000 0000 000000
2014-08-25 16:30:16,0.05,0.22,0.00,29.65,34.12,36.31,9.27,38.78,1011.76,2009.00,3313.65,3214.43,3484.05,499.61,482.89,4.31,0000 0000 0000 0000 000000
2014-08-25 16:35:17,0.03,0.22,0.00,29.65,34.12,36.30,9.35,38.67,1011.75,2009.00,3312.79,3213.92,3483.29,500.07,483.74,4.36,0000 0000 0000 0000 000000
2014-08-25 16:40:18,0.05,0.22,0.00,29.62,34.12,36.32,9.34,38.81,1011.73,2009.00,3311.99,3213.13,3482.65,500.05,483.59,4.40,0000 0000 0000 0000 000000
2014-08-25 16:45:19,0.02,0.23,0.00,29.60,34.11,36.31,9.35,38.92,1011.73,2009.00,3311.17,3212.90,3482.00,500.08,483.58,4.44,0000 0000 0000 0000 000000
2014-08-25 16:50:20,0.06,0.23,0.00,29.60,34.11,36.30,9.35,38.94,1011.73,2009.00,3310.44,3212.17,3481.25,500.34,483.76,4.48,0000 0000 0000 0000 000000
2014-08-25 16:55:21,0.01,0.23,0.00,29.59,34.10,36.30,9.31,38.69,1011.73,2009.00,3309.78,3211.92,3480.82,499.91,483.71,4.52,0000 0000 0000 0000 000000
2014-08-25 17:00:22,0.05,0.23,0.00,29.57,34.10,36.30,9.31,38.71,1011.73,2009.00,3309.00,3211.15,3480.06,500.42,484.19,4.57,0000 0000 0000 0000 000000
2014-08-25 17:05:23,0.03,0.23,0.00,29.55,34.10,36.29,9.21,38.63,1011.73,2009.00,3308.16,3210.85,3479.43,499.76,483.37,4.61,0000 0000 0000 0000 000000
2014-08-25 17:10:24,0.05,0.23,0.00,29.55,34.10,36.29,9.25,38.77,1011.73,2009.00,3307.36,3210.08,3478.76,499.45,483.15,4.65,0000 0000 0000 0000 000000